Location: Cheching
(60.0667°N, 164.2167°W)
Time: 11:44:06
(UTC+00:00)

UNISAT 6 - Pass Details

Date: 25 January 2021
Orbit: 607 x 687 km, 97.7° (Epoch: 24 February)

Event Time Altitude Azimuth Distance (km) Brightness Sun altitude
Rises 15:21:56 0° 106° (ESE) 2,899 ? -29.5°
Reaches altitude 10° 15:24:44 10° 86° (E) 2,009 ? -29.2°
Maximum altitude 15:27:31 17° 46° (NE) 1,617 ? -28.8°
Drops below altitude 10° 15:30:20 10° 7° (N) 2,045 ? -28.5°
Enters shadow 15:32:07 - 353° (N) 2,589 ? -28.3°
